Miscellaneous Local Product
Issued by NWS Hastings, NE

Home | Current Version | Previous Version | Graphics & Text | Print | Product List | Glossary On
Versions: 1 2 3 4 5 6 7 8 9 10 11 12 13 14 15 16 17 18 19 20 21 22 23 24 25 26 27 28 29 30 31 32 33 34 35 36 37 38 39 40 41 42 43 44 45 46 47 48 49 50
000
AXUS43 KGID 312002
MISGRI

GID CWA HOURLY WEATHER ROUNDUP
NATIONAL WEATHER SERVICE HASTINGS NE
300 PM CDT FRI JUL 31 2015

NOTE: "FAIR" INDICATES FEW OR NO CLOUDS BELOW 12,000 FEET WITH NO
SIGNIFICANT WEATHER AND/OR OBSTRUCTIONS TO VISIBILITY.

...SOUTH CENTRAL NEBRASKA...

CITY           SKY/WX    TMP DP  RH WIND       PRES   REMARKS
GRAND ISLAND   MOSUNNY   92  67  43 S13       30.12F HX  95
HASTINGS       SUNNY     89  69  51 VRB5      30.14F HX  93
KEARNEY        SUNNY     90  66  45 S14       30.14F HX  92
ORD            NOT AVBL
YORK           MOSUNNY   90  73  58 SW7       30.13F HX  98
AURORA         SUNNY     89  69  51 SW9       30.11F HX  93
LEXINGTON      SUNNY     91  64  39 S3        30.16F HX  92
HOLDREGE       MOSUNNY   86  65  49 S6        30.17F
HEBRON         SUNNY     90  64  42 SW7       30.13F HX  91

...NEBRASKA PANHANDLE...

CITY           SKY/WX    TMP DP  RH WIND       PRES   REMARKS
CHADRON        SUNNY     94  52  24 E10       30.15F HX  91
ALLIANCE       MOSUNNY   91  51  25 SE9G16    30.20F
SCOTTSBLUFF    SUNNY     90  62  39 E12       30.20F HX  90
SIDNEY         SUNNY     91  49  23 E8        30.24F

...WESTERN AND NORTH CENTRAL NEBRASKA...

CITY           SKY/WX    TMP DP  RH WIND       PRES   REMARKS
VALENTINE      SUNNY     94  49  21 N10       30.14F HX  90
AINSWORTH      MOSUNNY   88  60  39 NE6       30.15F
ONEILL         SUNNY     89  64  42 E3        30.13F HX  90
BROKEN BOW     MOSUNNY   91  62  37 SW6       30.14F HX  91
IMPERIAL       SUNNY     90  56  31 VRB5      30.19F
NORTH PLATTE   SUNNY     91  63  39 E5        30.15F HX  92
MCCOOK         SUNNY     93  61  34 S8        30.15F HX  93

...EASTERN NEBRASKA...

CITY           SKY/WX    TMP DP  RH WIND       PRES   REMARKS
NORFOLK        SUNNY     90  67  46 W5        30.08F HX  93
SO SIOUX CITY  MOSUNNY   86  71  60 SE8       30.08F HX  91
TEKAMAH        MOSUNNY   89  75  63 VRB3      30.08F HX  99
COLUMBUS       MOSUNNY   88  68  51 SW6       30.07F HX  91
ALBION         TSTM      70  59  69 SE21G43   30.11S VSB 1/2
OMAHA EPPLEY   MOSUNNY   91  73  55 NW7       30.07F HX  99
OFFUTT AFB     MOSUNNY   90  73  57 SW7       30.07F HX  97
MILLARD        PTSUNNY   89  74  59 W8        30.08F HX  98
LINCOLN        SUNNY     92  70  48 SW8       30.09F HX  97
NEBRASKA CITY  SUNNY     87  67  50 NW8       30.11F HX  90
BEATRICE       MOSUNNY   88  72  58 SW6       30.12F HX  94
FALLS CITY     SUNNY     87  72  60 VRB5      30.10F HX  93

...NORTHERN KANSAS...

CITY           SKY/WX    TMP DP  RH WIND       PRES   REMARKS
GOODLAND       MOSUNNY   87  62  43 SW12      30.22F
HILL CITY      SUNNY     93  60  33 S7        30.15F HX  93
NORTON         CLEAR     90  55  31 S8        30.15F
PHILLIPSBURG   SUNNY     95  63  34 CALM      30.14F HAZE    HX  96
SMITH CENTER   SUNNY     91  63  38 SE9       30.14F HX  92
HAYS           MOSUNNY   90  64  43 S13       30.15F HX  91
RUSSELL        SUNNY     92  65  40 E5        30.13F HX  94
CONCORDIA      SUNNY     90  66  45 CALM      30.12F HX  92
SALINA         MOSUNNY   92  69  47 VRB6      30.12F HX  97
TOPEKA         SUNNY     89  66  46 N6        30.12F HX  91



USA.gov is the U.S. government's official web portal to all federal, state and local government web resources and services.